When you browse on this site, cookies collect data to enhance your experience and personalize the content and advertising you see.
Visit our Privacy Policy to learn more. By continuing to use the site, you agree to this use of cookies and data.
  • In Czech Republic
  • List of Countries
  • For 7 days
  • Water Temperature
  • Satellite Maps
  • Weather Map
  • Weather Widgets
  • user-avatar
    Login

    Hourly Weather Ganja

    Today, 24 June, Monday

    Time Temperature Precipitation Wind Pressure Humidity
    00:00 +28°C° 0 mm 3 mps 725 mmHg 54%
    01:00 +27°C° 0 mm 2 mps 725 mmHg 56%
    02:00 +27°C° 0 mm 2 mps 725 mmHg 58%
    03:00 +26°C° 0 mm 1 mps 725 mmHg 59%
    04:00 +27°C° 0 mm 1 mps 725 mmHg 59%
    05:00 +27°C° 0 mm 1 mps 725 mmHg 59%
    06:00 +27°C° 0 mm 1 mps 725 mmHg 59%
    07:00 +28°C° 0 mm 1 mps 725 mmHg 57%
    08:00 +29°C° 0 mm 2 mps 725 mmHg 55%
    09:00 +30°C° 0 mm 2 mps 725 mmHg 52%
    10:00 +32°C° 0 mm 2 mps 725 mmHg 48%
    11:00 +34°C° 0 mm 3 mps 724 mmHg 44%
    12:00 +35°C° 0 mm 3 mps 724 mmHg 40%
    13:00 +36°C° 0 mm 4 mps 724 mmHg 39%
    14:00 +36°C° 0 mm 4 mps 724 mmHg 38%
    15:00 +37°C° 0 mm 4 mps 724 mmHg 36%
    16:00 +36°C° 0 mm 4 mps 724 mmHg 38%
    17:00 +36°C° 0 mm 3 mps 724 mmHg 41%
    18:00 +35°C° 0 mm 3 mps 724 mmHg 43%
    19:00 +34°C° 0 mm 3 mps 724 mmHg 46%
    20:00 +32°C° 0 mm 2 mps 725 mmHg 48%
    21:00 +30°C° 0 mm 2 mps 725 mmHg 51%
    22:00 +30°C° 0 mm 2 mps 725 mmHg 51%
    23:00 +29°C° 0 mm 2 mps 725 mmHg 52%

    Tomorrow, 25 June, Tuesday

    Time Temperature Precipitation Wind Pressure Humidity
    00:00 +28°C° 0 mm 2 mps 725 mmHg 53%
    01:00 +28°C° 0 mm 2 mps 725 mmHg 55%
    02:00 +27°C° 0 mm 2 mps 725 mmHg 57%
    03:00 +27°C° 0 mm 3 mps 725 mmHg 59%
    04:00 +27°C° 0 mm 3 mps 725 mmHg 59%
    05:00 +27°C° 0 mm 3 mps 725 mmHg 59%
    06:00 +27°C° 0 mm 3 mps 725 mmHg 59%
    07:00 +29°C° 0 mm 3 mps 725 mmHg 55%
    08:00 +30°C° 0 mm 3 mps 725 mmHg 52%
    09:00 +31°C° 0 mm 3 mps 725 mmHg 49%
    10:00 +34°C° 0 mm 3 mps 725 mmHg 44%
    11:00 +35°C° 0 mm 2 mps 725 mmHg 40%
    12:00 +36°C° 0 mm 2 mps 725 mmHg 36%
    13:00 +37°C° 0 mm 3 mps 725 mmHg 32%
    14:00 +38°C° 0 mm 3 mps 725 mmHg 28%
    15:00 +38°C° 0 mm 4 mps 725 mmHg 24%
    16:00 +38°C° 0 mm 4 mps 725 mmHg 26%
    17:00 +37°C° 0 mm 4 mps 725 mmHg 28%
    18:00 +36°C° 0 mm 4 mps 724 mmHg 30%
    19:00 +35°C° 0 mm 4 mps 725 mmHg 32%
    20:00 +33°C° 0 mm 4 mps 725 mmHg 34%
    21:00 +31°C° 0 mm 3 mps 726 mmHg 35%
    22:00 +30°C° 0 mm 3 mps 726 mmHg 36%
    23:00 +29°C° 0 mm 3 mps 725 mmHg 37%

    Day after tomorrow, 26 June, Wednesday

    Time Temperature Precipitation Wind Pressure Humidity
    00:00 +28°C° 0 mm 2 mps 725 mmHg 38%
    01:00 +28°C° 0 mm 2 mps 725 mmHg 40%
    02:00 +27°C° 0 mm 2 mps 725 mmHg 41%
    03:00 +26°C° 0 mm 1 mps 725 mmHg 42%
    04:00 +27°C° 0 mm 2 mps 725 mmHg 45%
    05:00 +27°C° 0 mm 2 mps 725 mmHg 47%
    06:00 +27°C° 0 mm 2 mps 725 mmHg 50%
    07:00 +29°C° 0 mm 2 mps 726 mmHg 47%
    08:00 +30°C° 0 mm 2 mps 726 mmHg 44%
    09:00 +33°C° 0 mm 3 mps 726 mmHg 42%
    10:00 +34°C° 0 mm 3 mps 726 mmHg 37%
    11:00 +35°C° 0 mm 3 mps 725 mmHg 33%
    12:00 +37°C° 0 mm 3 mps 725 mmHg 29%
    13:00 +37°C° 0 mm 3 mps 725 mmHg 27%
    14:00 +38°C° 0 mm 4 mps 725 mmHg 25%
    15:00 +39°C° 0 mm 5 mps 724 mmHg 23%
    16:00 +39°C° 0 mm 5 mps 724 mmHg 26%
    17:00 +37°C° 0 mm 4 mps 724 mmHg 30%
    18:00 +36°C° 0 mm 4 mps 724 mmHg 34%
    19:00 +35°C° 0 mm 5 mps 724 mmHg 36%
    20:00 +33°C° 0 mm 5 mps 725 mmHg 39%
    21:00 +30°C° 0 mm 5 mps 725 mmHg 41%
    22:00 +30°C° 0 mm 5 mps 725 mmHg 41%
    23:00 +29°C° 0 mm 4 mps 725 mmHg 42%

    27 June, Thursday

    Time Temperature Precipitation Wind Pressure Humidity
    00:00 +29°C° 0 mm 4 mps 725 mmHg 42%
    01:00 +28°C° 0 mm 4 mps 725 mmHg 45%
    02:00 +28°C° 0 mm 3 mps 724 mmHg 47%
    03:00 +27°C° 0 mm 3 mps 724 mmHg 50%
    04:00 +27°C° 0.1 mm 3 mps 724 mmHg 51%
    05:00 +27°C° 0.1 mm 3 mps 724 mmHg 53%
    06:00 +27°C° 0.1 mm 3 mps 724 mmHg 55%
    07:00 +28°C° 0 mm 3 mps 724 mmHg 52%
    08:00 +29°C° 0 mm 3 mps 724 mmHg 49%
    09:00 +30°C° 0 mm 4 mps 724 mmHg 47%
    10:00 +32°C° 0 mm 4 mps 724 mmHg 44%
    11:00 +33°C° 0 mm 5 mps 723 mmHg 42%
    12:00 +33°C° 0 mm 6 mps 723 mmHg 39%
    13:00 +34°C° 0.1 mm 6 mps 723 mmHg 40%
    14:00 +34°C° 0.1 mm 5 mps 722 mmHg 40%
    15:00 +34°C° 0.1 mm 5 mps 722 mmHg 41%
    16:00 +33°C° 0.2 mm 5 mps 722 mmHg 42%
    17:00 +33°C° 0.2 mm 5 mps 722 mmHg 44%
    18:00 +32°C° 0.2 mm 5 mps 722 mmHg 45%
    19:00 +30°C° 0.1 mm 5 mps 722 mmHg 48%
    20:00 +29°C° 0.1 mm 5 mps 722 mmHg 50%
    21:00 +27°C° 0.1 mm 5 mps 722 mmHg 52%
    22:00 +27°C° 0.1 mm 5 mps 722 mmHg 52%
    23:00 +26°C° 0.1 mm 4 mps 722 mmHg 53%

    28 June, Friday

    Time Temperature Precipitation Wind Pressure Humidity
    00:00 +26°C° 0.1 mm 4 mps 721 mmHg 53%
    01:00 +26°C° 0 mm 4 mps 721 mmHg 54%
    02:00 +25°C° 0 mm 3 mps 721 mmHg 55%
    03:00 +25°C° 0 mm 3 mps 721 mmHg 56%
    04:00 +25°C° 0.2 mm 3 mps 720 mmHg 58%
    05:00 +24°C° 0.2 mm 2 mps 720 mmHg 59%
    06:00 +24°C° 0.2 mm 2 mps 720 mmHg 60%
    07:00 +25°C° 0.2 mm 2 mps 720 mmHg 57%
    08:00 +26°C° 0.2 mm 2 mps 720 mmHg 54%
    09:00 +26°C° 0.2 mm 2 mps 719 mmHg 51%
    10:00 +27°C° 0.2 mm 2 mps 719 mmHg 50%
    11:00 +28°C° 0.2 mm 2 mps 718 mmHg 48%
    12:00 +29°C° 0.2 mm 2 mps 718 mmHg 46%
    13:00 +30°C° 0.1 mm 2 mps 717 mmHg 45%
    14:00 +30°C° 0.1 mm 2 mps 717 mmHg 43%
    15:00 +30°C° 0.1 mm 2 mps 716 mmHg 42%
    16:00 +30°C° 0.4 mm 2 mps 716 mmHg 47%
    17:00 +29°C° 0.4 mm 3 mps 717 mmHg 53%
    18:00 +28°C° 0.4 mm 3 mps 717 mmHg 58%
    19:00 +27°C° 0.5 mm 3 mps 717 mmHg 61%
    20:00 +27°C° 0.5 mm 3 mps 718 mmHg 65%
    21:00 +26°C° 0.5 mm 4 mps 718 mmHg 69%
    22:00 +26°C° 0.5 mm 3 mps 718 mmHg 68%
    23:00 +26°C° 0.5 mm 2 mps 718 mmHg 66%

    29 June, Saturday

    Time Temperature Precipitation Wind Pressure Humidity
    00:00 +25°C° 0.5 mm 2 mps 718 mmHg 65%
    01:00 +25°C° 0 mm 2 mps 718 mmHg 66%
    02:00 +25°C° 0 mm 2 mps 717 mmHg 66%
    03:00 +24°C° 0 mm 3 mps 717 mmHg 67%
    04:00 +25°C° 0 mm 3 mps 717 mmHg 66%
    05:00 +25°C° 0 mm 3 mps 717 mmHg 65%
    06:00 +25°C° 0 mm 3 mps 718 mmHg 64%
    07:00 +27°C° 0 mm 4 mps 717 mmHg 60%
    08:00 +28°C° 0 mm 4 mps 717 mmHg 55%
    09:00 +29°C° 0 mm 5 mps 717 mmHg 50%
    10:00 +30°C° 0.1 mm 5 mps 717 mmHg 48%
    11:00 +32°C° 0.1 mm 4 mps 717 mmHg 45%
    12:00 +33°C° 0.1 mm 4 mps 717 mmHg 42%
    13:00 +34°C° 0.2 mm 3 mps 716 mmHg 42%
    14:00 +34°C° 0.2 mm 2 mps 716 mmHg 41%
    15:00 +34°C° 0.2 mm 2 mps 715 mmHg 41%
    16:00 +34°C° 0.3 mm 2 mps 715 mmHg 43%
    17:00 +32°C° 0.3 mm 2 mps 715 mmHg 46%
    18:00 +32°C° 0.3 mm 2 mps 715 mmHg 49%
    19:00 +30°C° 0.8 mm 3 mps 716 mmHg 53%
    20:00 +28°C° 0.8 mm 4 mps 716 mmHg 57%
    21:00 +26°C° 0.8 mm 5 mps 717 mmHg 62%
    22:00 +25°C° 1.4 mm 4 mps 717 mmHg 68%
    23:00 +23°C° 1.4 mm 4 mps 717 mmHg 74%
    Show more